UFO 4 (USA 108)

Last updated on Wed Sep 09 2026 00:02:57 GMT+0000 (Coordinated Universal Time)

1 23467U 95003A 26251.61835919 -.00000035 00000+0 00000+0 0 9994 2 23467 9.6935 12.8021 0002757 157.9734 211.9486 1.00276948115798
UTC large
Height (km)
Speed (km/s)
/
Latitude / Longitude
Inclination (degrees)
Orbital Period (minutes)
Azimuth
Elevation
Range (km)
Doppler Factor

Next 0 passes for location: London (51.5072 / 0.1276)

No passes found over London.
UFO 4 (USA 108)